Regional Weather Roundup
Issued by NWS Huntsville, AL

Home | Current Version | Previous Version | Text Only | Print | Product List | Glossary On
Versions: 1 2 3 4 5 6 7 8 9 10 11 12 13 14 15 16 17 18 19 20 21 22 23 24 25 26 27 28 29 30 31 32 33 34 35 36 37 38 39 40 41 42 43 44 45 46 47 48 49 50
000
ASUS44 KHUN 271010
RWRHUN

WEATHER ROUNDUP FOR THE TENNESSEE VALLEY
NATIONAL WEATHER SERVICE HUNTSVILLE AL
500 AM CDT WED MAY 27 2015

ALZ001>004-271100-
NORTHWEST ALABAMA

CITY           SKY/WX    TMP DP  RH WIND       PRES   REMARKS
COURTLAND HCN    N/A     70 N/A N/A S3          N/A
RUSSELLVILLE     N/A     70 N/A N/A MISG        N/A
SHOALS AIRPORT CLOUDY    70  67  90 SE5       30.15S
SHOALS TVA RES   N/A     70 N/A N/A MISG        N/A
$$

ALZ005>007-016-271100-
NORTH CENTRAL ALABAMA

CITY           SKY/WX    TMP DP  RH WIND       PRES   REMARKS
CULLMAN AG STN   N/A     66 N/A N/A CALM        N/A
DECATUR AP     CLOUDY    69  68  96 S8        30.17R
HUNTSVILLE AP  CLOUDY    70  67  90 S7        30.17R
HUN NWS/UAH      N/A     68  65  88 SE3         N/A
MERIDIANVILLE  CLOUDY    68  63  83 SE5       30.18R
REDSTONE ARSN  CLOUDY    68  67  94 S8        30.17R
VINEMONT AP    FOG       67  66  99 CALM      30.21R VSB 3/4
$$

ALZ008>010-271100-
NORTHEAST ALABAMA

CITY           SKY/WX    TMP DP  RH WIND       PRES   REMARKS
ALBERTVILLE    CLOUDY    66  66 100 SE3       30.20R
FORT PAYNE     CLOUDY    66  61  82 CALM      30.21R
SCOTTSBORO HCN   N/A     68 N/A N/A MISG        N/A
VALLEY HEAD      N/A     66 N/A N/A MISG        N/A
$$

TNZ076-096-097-271100-
SOUTHEASTERN MIDDLE TENNESSEE

CITY           SKY/WX    TMP DP  RH WIND       PRES   REMARKS
TULLAHOMA      CLOUDY    66  64  94 S3        30.20S
WINCHESTER     CLOUDY    68  64  88 S5        30.20R
$$

...SURROUNDING SITES...

CITY           SKY/WX    TMP DP  RH WIND       PRES   REMARKS
ATLANTA        MOCLDY    67  64  90 CALM      30.21R
ANNISTON       CLOUDY    68  65  90 CALM      30.22R
BIRMINGHAM     CLOUDY    69  66  90 SE5       30.20R
CHATTANOOGA    CLOUDY    67  65  93 CALM      30.21R
CORINTH        CLOUDY    68  66  94 SE6       30.10S
DALTON         CLOUDY    64  64 100 CALM      30.22R
GADSDEN        CLOUDY   N/A N/A N/A S3        30.19R
GOLDEN TRNGL   CLOUDY    72  68  88 S7        30.13S
HALEYVILLE     CLOUDY    69  69 100 CALM      30.20R
JACKSON TN     MOCLDY    65  63  93 CALM      30.09R
LEWISBURG      MOCLDY    69  66  90 S6        30.14S
MEMPHIS        MOCLDY    72  67  84 S9        30.07S
NASHVILLE      CLOUDY    70  68  93 S6        30.13S
OXFORD MS      FAIR      66  64  94 S7        30.12S
ROME           CLOUDY    67  65  93 CALM      30.21R
SAVANNAH       CLOUDY    68  32  26 CALM      30.11F
TUPELO         PTCLDY    69  67  93 S3        30.12S
TUSCALOOSA     CLOUDY    71  69  93 SE5       30.16R
$$

...GULF COAST WEATHER...

CITY           SKY/WX    TMP DP  RH WIND       PRES   REMARKS
GULFPORT       MOCLDY    74  72  93 CALM      30.10S
PASCAGOULA     FOG       73  73 100 CALM      30.12S VSB 1/2
MOBILE         CLOUDY    75  74  96 E5        30.14R
GULF SHORES    PTSUNNY   75  74  96 CALM      30.12S THUNDER
PENSACOLA      TSTM      78  75  90 SE13      30.14R
DESTIN         CLOUDY    72  68  87 CALM      30.14R
PANAMA CITY    CLOUDY    72  68  88 NE3       30.13R
APPALACHICOLA  MOCLDY    80  72  76 SE6       30.13R
$$




USA.gov is the U.S. government's official web portal to all federal, state and local government web resources and services.